Wind_Speed
67 67 66 67 67 68 69 71 72 74 75 77 78 80 82 84 86 88 90 91 93 94 96 97 98 98 98 99 99 99 98 97 96 96 95 94 93 93 94 96 99 103 106 108 109 109 109 107 107 108 108 107 106 105 103 101 100 98 96 94 92 90 89
61 61 61 62 63 64 66 68 70 71 73 74 76 77 78 80 81 83 84 86 87 89 91 93 95 96 96 98 100 100 100 100 100 99 98 97 96 95 94 95 96 97 99 101 102 104 106 106 105 105 106 107 107 107 105 104 102 101 100 98 96 93 91
56 57 58 60 61 63 65 67 68 70 71 72 73 74 75 76 77 78 79 80 81 83 85 87 89 90 92 94 96 97 98 99 100 101 101 100 99 98 96 96 96 96 96 96 96 97 99 102 102 102 103 104 105 106 107 106 104 103 102 101 99 97 95
54 56 57 60 62 64 65 67 68 68 69 71 72 72 72 73 74 75 75 76 77 78 80 82 84 85 87 90 92 93 94 96 97 99 100 101 100 100 99 98 98 97 96 95 94 92 93 96 98 98 99 101 102 103 105 106 105 104 104 103 102 101 99
53 55 57 60 62 64 66 67 68 68 69 70 70 70 70 71 71 72 72 73 74 75 76 78 79 80 82 84 86 88 90 92 94 95 97 98 99 100 100 100 99 99 98 97 95 92 90 91 93 93 94 96 98 99 101 104 105 104 104 104 104 103 102
54 56 58 60 63 65 66 67 68 69 70 70 70 70 70 70 70 70 70 71 71 72 73 74 75 76 78 80 81 83 85 87 90 92 94 95 96 97 99 100 100 100 100 99 97 93 91 90 90 89 89 91 94 96 97 99 102 103 103 104 105 104 103
54 56 58 61 63 65 67 68 69 70 70 70 70 70 70 69 69 69 69 69 68 68 68 68 69 70 72 74 76 78 80 83 85 88 90 92 93 94 96 97 99 100 101 100 99 96 93 91 90 89 87 87 89 92 93 94 96 98 100 102 104 104 104
54 56 59 62 64 66 68 69 70 71 71 71 71 70 70 70 69 69 67 66 64 63 62 63 63 65 66 68 70 73 75 78 80 83 85 87 89 91 93 94 96 97 99 100 100 98 96 94 92 90 88 87 88 89 89 90 92 94 96 98 101 103 104
55 57 59 62 64 66 68 70 71 72 73 72 72 71 71 70 70 68 66 62 59 57 57 57 58 59 61 64 66 67 70 72 75 78 80 81 84 87 89 91 93 94 96 98 99 99 98 96 94 92 90 88 88 88 87 88 90 90 92 94 97 100 102
55 57 60 62 64 67 69 71 72 73 73 73 73 73 72 71 69 67 62 57 54 52 52 52 54 55 56 58 60 62 64 67 69 72 74 75 78 81 84 87 89 91 92 94 96 97 98 98 96 94 92 91 90 89 88 88 88 88 89 91 93 95 97
55 57 60 62 65 67 69 71 73 73 73 73 74 74 74 72 69 64 58 54 51 49 48 48 48 49 50 52 54 56 58 61 63 66 69 71 73 75 79 82 84 86 88 90 92 94 95 98 97 96 94 93 91 91 90 89 88 88 87 88 90 90 91
55 58 60 63 65 67 69 70 72 73 73 73 73 73 74 72 67 60 55 51 48 46 45 44 43 44 45 46 48 50 52 54 56 59 63 65 68 70 73 76 79 81 84 86 89 91 92 94 96 96 96 94 93 92 92 91 90 89 87 87 87 87 87
55 58 61 63 65 67 68 70 71 72 72 72 72 72 72 69 63 56 50 47 45 43 42 41 40 40 40 41 43 45 47 49 51 53 56 59 62 65 67 70 73 76 79 82 85 87 89 90 92 94 95 95 95 95 93 92 91 90 89 88 86 85 85
56 58 61 63 65 66 67 69 71 71 71 71 71 70 69 65 58 51 46 43 42 41 41 40 39 37 36 36 38 39 42 45 47 49 51 54 57 59 62 65 68 71 74 77 81 83 85 85 88 91 92 93 95 96 94 92 91 91 91 90 88 86 85
56 58 61 63 65 65 66 68 70 71 70 70 69 68 66 60 53 47 43 41 41 41 41 40 39 37 35 35 35 36 39 41 43 45 48 50 52 54 57 60 63 65 68 72 75 79 80 81 83 86 88 90 92 95 94 93 94 94 94 92 90 88 86
56 58 60 62 64 64 65 66 68 70 70 69 68 67 62 55 48 44 41 40 40 42 42 41 40 38 36 34 34 35 37 39 40 43 44 46 47 49 52 55 57 59 62 65 69 73 75 77 79 81 83 85 88 92 93 94 96 96 95 93 91 89 88
56 58 60 61 63 63 63 64 66 68 68 67 66 64 59 51 45 41 39 39 40 42 42 41 41 40 38 36 35 35 36 37 39 41 41 42 43 45 48 50 50 52 55 58 62 66 69 72 75 77 79 81 84 87 90 94 96 96 95 94 92 91 89
55 57 59 60 61 62 63 63 65 67 67 66 65 62 55 48 42 39 38 38 39 41 42 41 40 41 40 38 36 36 35 36 38 39 39 40 41 42 44 44 44 46 49 52 56 60 64 67 70 73 75 78 80 83 86 91 93 94 95 96 94 91 89
55 56 58 59 59 61 62 63 64 65 66 65 63 60 53 46 41 38 37 37 38 40 40 39 38 39 39 38 36 35 34 34 36 37 38 39 40 41 39 38 39 43 45 48 51 55 58 62 66 69 72 75 77 78 81 85 88 90 93 96 95 91 89
55 55 56 57 58 59 62 63 64 64 64 64 62 58 52 46 42 39 37 37 37 36 35 35 35 35 36 36 35 33 32 32 33 34 36 36 37 36 35 36 39 41 42 44 47 49 53 56 60 63 66 69 72 73 75 78 81 84 88 92 93 92 91
54 54 54 55 57 58 60 62 64 63 63 62 60 56 51 46 42 40 38 36 34 32 31 30 31 32 32 32 30 30 29 28 28 30 31 32 32 32 33 36 37 37 37 39 41 44 47 50 53 56 59 62 65 66 68 71 74 78 82 86 89 91 92
53 53 52 53 55 57 58 60 62 62 61 60 58 54 50 46 43 41 38 33 29 27 26 26 27 27 27 27 26 24 24 23 24 25 27 28 30 32 33 33 32 32 32 32 34 37 39 42 45 48 51 54 56 58 60 63 67 71 75 79 84 88 92
52 51 51 52 53 55 56 58 60 61 60 58 56 52 49 46 44 42 37 31 25 22 23 24 24 23 22 22 21 19 19 20 21 23 25 28 31 32 32 31 30 29 28 27 28 30 32 34 37 40 43 45 47 49 52 55 58 63 67 72 77 83 87
51 50 50 50 51 53 54 55 58 59 59 57 54 50 48 46 44 41 37 30 23 20 21 21 20 19 18 17 17 18 20 21 23 25 27 29 30 30 30 29 29 28 26 25 24 24 26 29 31 33 35 37 39 42 45 48 51 54 59 64 70 75 81
50 50 49 49 50 51 52 53 55 57 57 55 52 49 46 45 43 40 36 29 23 21 20 19 17 15 15 16 18 20 20 21 22 23 24 25 25 24 25 25 25 25 24 23 21 21 22 25 27 28 29 31 34 37 39 41 43 45 50 55 60 66 72
49 49 48 48 49 50 51 51 52 54 54 53 50 47 45 43 41 38 34 28 23 21 19 17 15 14 14 16 18 19 17 16 16 17 18 19 19 20 21 22 22 22 21 20 20 19 21 24 26 27 28 29 31 32 33 34 37 39 43 47 52 57 62
49 49 48 48 48 49 49 49 50 51 51 50 47 45 43 41 39 36 32 27 24 21 18 15 14 13 14 15 16 15 13 11 11 13 15 18 20 20 21 21 20 19 19 19 19 19 21 24 25 25 26 27 27 28 28 30 32 34 37 41 45 48 53
49 49 48 48 48 48 48 48 49 49 49 47 44 42 40 39 36 33 29 27 25 21 17 15 14 13 13 13 12 11 9 10 12 14 16 18 20 21 20 19 19 18 17 18 19 19 21 22 23 22 22 22 23 24 25 27 29 31 34 37 40 42 46
48 48 48 47 47 48 48 48 48 48 48 46 43 41 39 37 33 28 25 25 24 22 18 16 14 13 12 12 11 10 11 13 16 17 18 18 19 20 19 17 16 16 15 17 18 19 19 19 19 19 19 19 19 21 22 24 26 28 30 33 36 38 40
49 49 49 49 49 49 50 49 48 48 48 46 44 41 39 37 33 27 23 22 22 21 19 17 15 14 13 12 12 12 13 15 16 18 20 20 19 18 17 15 14 14 14 15 17 16 15 15 15 15 16 16 17 18 19 20 22 24 27 29 31 33 35
51 51 51 51 51 50 51 50 49 48 47 46 44 41 39 37 33 28 24 22 21 19 19 17 16 15 14 14 13 12 13 15 16 17 19 19 17 16 15 14 13 12 13 14 14 14 13 12 12 13 13 14 14 15 16 18 20 21 23 24 25 27 30
51 50 51 51 52 52 52 51 50 49 47 46 43 40 38 37 34 28 24 23 21 19 18 18 17 16 15 14 13 12 12 13 15 17 18 17 16 14 13 12 11 11 12 13 13 12 11 10 10 10 11 11 11 12 13 15 17 18 19 20 21 23 26
50 50 50 50 51 52 52 52 52 50 49 47 44 41 38 36 34 29 22 21 21 20 18 17 17 16 15 13 13 13 13 13 14 16 17 16 14 12 11 9 9 9 10 11 11 10 9 9 8 9 9 9 9 10 11 13 14 15 15 16 17 19 22
48 49 49 49 49 50 51 52 52 51 50 48 45 43 40 37 35 31 23 19 19 20 19 18 17 16 15 14 13 13 13 13 14 15 16 14 12 10 8 7 7 7 7 8 8 8 7 7 7 7 8 8 8 8 9 11 12 12 12 13 15 17 19
46 47 47 47 47 48 49 50 50 50 50 49 46 43 40 37 35 33 28 21 18 19 19 19 18 16 15 14 13 13 12 12 13 15 15 13 10 9 7 5 5 4 4 4 5 5 5 5 6 6 6 6 6 6 7 9 10 9 9 10 12 15 17
44 45 46 46 46 46 47 48 49 50 49 49 47 44 40 36 34 32 31 26 20 18 19 19 19 18 16 14 13 12 12 12 13 14 14 12 9 8 6 5 4 3 3 2 2 2 3 3 4 4 4 4 4 5 6 7 8 8 8 8 10 12 14
Wind_Direction
289 288 288 287 287 287 287 287 286 285 284 283 282 281 279 278 277 275 274 273 272 271 270 269 267 266 266 265 264 263 263 262 262 261 261 261 260 260 260 259 259 258 254 252 251 250 249 249 249 249 249 249 248 248 247 247 246 245 245 243 242 241 241
290 290 290 290 291 291 291 291 291 290 289 287 286 284 283 281 280 278 277 276 274 273 272 270 269 267 266 264 263 262 262 261 260 260 259 259 259 258 258 258 258 258 256 253 252 250 249 249 249 248 248 248 247 247 247 246 246 245 245 244 243 241 240
291 292 293 294 294 295 295 295 295 294 292 291 289 287 286 284 283 282 281 279 277 275 273 272 270 268 267 265 264 262 261 260 259 258 258 257 257 257 256 257 257 257 256 254 253 251 249 249 248 248 247 247 246 246 246 245 245 245 245 244 244 242 240
293 294 296 297 298 299 299 299 298 297 295 293 291 289 288 287 286 285 283 282 280 278 275 273 271 269 267 266 265 263 262 261 259 258 257 256 255 255 255 254 255 255 255 254 253 251 250 249 248 247 247 247 246 245 245 245 244 243 244 244 243 243 241
294 296 297 299 301 302 302 302 301 300 298 296 294 293 291 290 289 288 286 284 282 280 277 275 272 270 268 266 265 263 262 261 259 258 257 256 255 254 253 253 253 253 253 253 252 251 250 249 248 247 247 247 246 245 244 244 243 242 242 242 243 242 242
296 297 299 301 303 303 304 304 304 303 301 299 298 296 295 294 294 292 291 288 285 282 279 276 273 271 269 267 265 263 261 260 259 258 257 256 255 254 253 252 251 251 251 252 251 250 249 248 248 247 246 246 246 245 244 243 242 242 241 241 241 241 241
297 299 301 303 304 305 306 307 306 305 304 302 301 300 299 299 298 297 295 292 289 285 282 278 275 272 270 267 265 263 261 260 259 257 256 256 255 254 253 252 251 250 250 250 250 249 249 248 247 246 245 245 246 245 244 243 242 241 241 240 240 240 240
299 301 303 305 306 308 309 309 309 308 306 305 304 304 303 303 302 301 298 296 292 288 284 280 276 273 270 268 265 263 262 260 259 257 256 255 255 254 253 252 251 250 250 249 249 248 248 247 246 246 245 244 244 245 244 244 243 241 240 240 239 238 239
301 303 305 307 308 310 310 311 310 309 308 308 307 307 307 306 305 304 301 298 294 291 287 283 278 275 271 268 265 263 262 260 259 258 256 255 255 254 253 252 251 250 250 249 248 247 247 246 245 245 244 243 243 244 244 244 243 241 240 240 239 238 238
303 305 307 308 310 311 312 312 312 311 311 310 310 309 309 308 307 306 303 300 296 292 288 284 280 277 274 271 268 265 263 261 260 259 257 256 255 254 253 252 251 251 250 249 248 247 246 245 244 244 243 243 242 243 243 243 243 242 240 239 239 238 238
305 307 308 310 311 312 313 313 312 312 312 312 312 311 310 310 310 308 305 301 296 292 287 284 281 278 276 273 271 268 266 263 262 260 258 256 255 254 253 252 251 251 250 249 249 247 246 245 244 243 243 242 242 242 242 242 242 242 241 240 239 237 237
307 309 311 312 312 313 313 313 313 313 313 313 313 313 312 312 312 311 307 303 298 294 290 286 282 279 276 274 272 269 268 266 264 262 261 258 256 254 253 253 252 251 250 250 249 248 247 246 245 243 242 242 241 241 241 240 241 241 240 240 239 237 236
309 311 312 313 313 314 314 314 313 313 314 314 314 314 313 314 314 312 309 305 301 297 293 289 285 281 278 275 272 270 268 266 264 263 262 261 259 256 255 254 253 251 250 250 249 248 247 247 246 244 243 242 241 240 240 240 240 240 240 239 239 238 236
312 313 313 313 313 314 315 314 313 314 315 315 315 315 315 315 315 313 310 307 303 299 296 292 289 285 281 277 274 271 268 265 263 262 261 260 260 259 257 255 254 253 252 251 250 249 248 247 247 246 244 242 242 241 240 239 239 240 240 239 238 237 236
313 314 313 314 314 315 315 315 315 315 316 316 316 316 316 317 315 313 311 307 303 299 297 294 292 288 284 280 276 273 269 266 264 262 260 259 259 259 258 257 256 255 254 252 251 250 249 247 246 246 245 244 243 242 240 239 239 239 239 238 237 237 236
314 314 314 315 315 316 316 316 316 317 317 317 317 317 318 317 316 314 311 306 302 299 297 296 294 290 286 281 276 273 270 268 266 264 261 260 259 259 259 258 257 257 256 255 254 253 251 248 246 246 245 244 244 243 241 239 238 238 238 238 237 237 236
315 315 316 317 317 317 317 317 317 318 318 318 318 319 319 317 316 314 310 306 302 299 297 296 293 289 286 281 277 273 271 270 268 267 265 263 261 259 259 258 258 259 259 258 257 255 253 251 248 246 245 244 243 243 242 241 239 238 238 237 236 236 236
317 317 318 318 318 318 318 319 319 319 320 319 319 320 320 318 317 314 310 306 302 298 296 293 289 286 283 281 277 274 272 271 269 269 268 266 263 260 258 258 258 257 257 257 257 257 255 253 250 248 246 244 243 242 242 242 240 238 238 237 236 235 235
319 320 320 319 319 319 320 321 321 322 321 321 321 321 321 320 318 315 312 308 304 300 296 292 288 284 282 281 278 276 273 270 269 269 267 266 265 263 262 261 258 255 253 252 253 255 256 255 253 250 248 246 245 243 243 243 241 239 238 238 237 235 235
321 322 321 321 321 322 322 323 324 324 323 323 323 322 321 321 320 317 315 312 307 301 295 290 287 284 282 282 280 278 274 271 268 268 266 266 266 267 265 262 258 255 254 253 252 252 253 255 255 254 251 249 247 246 245 245 243 241 239 239 237 236 235
323 323 323 323 323 324 324 324 325 326 325 324 324 323 322 322 322 320 318 316 310 301 295 290 287 285 284 283 282 279 276 271 267 266 267 268 268 267 264 262 261 260 258 256 255 253 252 252 254 254 254 252 250 247 246 246 245 243 240 238 237 236 235
324 325 325 325 325 325 326 326 326 327 327 325 324 323 322 323 323 322 320 319 312 301 294 291 288 288 287 285 282 280 276 271 267 266 267 269 269 269 268 268 268 266 261 258 256 255 253 251 251 252 253 254 253 250 248 246 245 244 242 239 236 235 235
326 327 328 327 327 327 327 327 328 328 328 327 325 323 322 323 324 323 323 322 314 301 294 293 292 292 289 285 282 279 274 268 264 263 264 266 270 272 273 273 272 268 265 260 255 252 250 250 249 249 250 251 252 251 249 247 245 243 242 239 236 235 234
327 328 329 329 329 328 329 330 330 330 330 329 326 323 322 323 325 324 325 324 317 304 298 298 298 296 290 283 277 269 263 259 259 262 264 266 269 270 271 271 269 267 265 260 254 250 249 249 247 246 246 246 246 246 247 246 245 244 242 240 237 236 234
329 329 330 331 330 330 331 332 332 332 331 330 327 323 322 324 325 324 324 324 317 307 303 303 302 297 287 275 265 259 256 256 259 264 267 267 269 271 272 270 267 265 263 259 256 253 250 248 246 243 241 240 240 242 244 245 244 243 243 241 238 236 234
330 331 332 333 333 333 334 335 335 334 333 331 327 323 322 324 324 323 323 322 316 309 306 305 303 296 282 268 260 256 255 257 264 273 279 281 282 283 281 276 270 267 265 262 259 254 248 245 242 239 236 236 237 239 240 242 241 240 240 241 239 236 233
332 333 334 335 335 336 336 336 337 337 336 333 328 323 321 323 324 322 321 320 315 310 308 305 302 296 282 269 262 259 258 266 282 297 302 301 298 293 286 280 276 272 268 265 261 253 244 242 240 237 235 235 236 236 237 238 239 238 238 239 239 237 234
334 334 336 337 337 337 338 339 339 339 339 336 331 324 321 323 324 322 319 316 314 313 310 306 303 299 289 278 274 275 285 302 312 313 311 308 303 296 289 283 279 275 270 264 259 251 243 240 239 237 236 237 236 236 237 237 237 237 237 238 238 237 235
335 336 337 338 339 339 341 342 342 342 341 339 335 328 324 325 326 323 316 313 312 312 311 307 304 304 299 292 295 309 320 322 320 316 315 313 305 296 289 282 276 273 267 259 253 247 241 238 237 236 235 237 237 236 237 238 238 237 237 238 238 237 235
335 337 338 340 341 341 343 344 345 345 344 343 339 333 328 328 330 327 318 312 311 310 310 309 308 310 311 309 313 322 323 319 317 315 313 311 303 293 286 279 273 268 262 254 249 243 236 232 234 235 234 234 234 233 234 237 238 237 237 237 237 235 234
334 337 338 340 341 342 343 345 346 347 347 345 343 337 330 328 331 330 320 314 313 310 308 309 310 311 314 314 314 317 315 311 311 310 307 303 297 289 283 277 271 263 256 252 248 240 231 226 229 234 233 231 230 230 231 234 236 236 236 235 234 232 231
334 336 338 339 340 342 343 345 346 347 348 347 345 341 334 329 331 332 323 313 312 310 307 307 308 307 308 308 308 309 308 307 307 306 302 297 290 285 281 275 268 261 257 254 251 243 234 228 228 232 234 232 230 229 230 234 237 237 235 233 230 228 226
333 335 337 339 339 340 342 344 345 347 348 348 347 344 339 331 330 331 326 312 308 308 306 305 304 303 302 302 303 303 303 304 304 302 297 292 286 283 280 273 265 262 260 257 253 249 244 237 232 233 234 232 228 226 227 232 238 239 237 233 228 225 223
333 335 337 338 339 339 340 342 344 345 347 348 348 346 342 335 330 329 327 315 304 303 304 303 301 298 296 296 297 296 295 297 299 296 292 289 285 283 278 269 261 262 264 262 258 256 252 246 239 237 235 232 228 224 223 229 236 239 237 233 227 223 220
333 334 336 337 339 339 339 340 342 344 345 347 347 346 344 339 331 327 325 320 307 299 299 299 298 296 292 289 287 286 288 290 291 290 287 285 283 282 277 267 258 256 258 262 264 261 257 250 244 241 239 236 234 228 224 229 236 239 236 229 226 223 219
334 334 335 337 338 339 339 339 340 343 344 345 346 346 345 341 334 326 322 319 312 300 294 293 294 293 291 286 281 280 282 284 283 283 283 281 279 276 271 262 255 248 240 237 237 236 236 236 236 239 241 241 241 240 234 232 235 237 232 224 221 221 218
Height
5300 5297 5295 5292 5288 5285 5282 5279 5276 5273 5270 5267 5264 5261 5259 5257 5255 5253 5252 5251 5251 5250 5248 5247 5249 5250 5251 5249 5248 5251 5253 5254 5256 5257 5258 5260 5262 5263 5264 5266 5265 5269 5284 5295 5297 5306 5315 5317 5320 5325 5331 5337 5342 5348 5354 5359 5364 5370 5374 5380 5387 5393 5398
5290 5287 5284 5282 5279 5275 5272 5268 5265 5261 5257 5254 5251 5248 5245 5243 5240 5239 5238 5236 5235 5234 5231 5229 5230 5232 5233 5231 5230 5233 5235 5237 5239 5239 5242 5244 5245 5248 5250 5250 5250 5253 5261 5272 5280 5287 5295 5299 5302 5308 5315 5319 5324 5331 5337 5342 5349 5355 5359 5365 5372 5378 5385
5281 5279 5276 5273 5269 5266 5262 5258 5254 5250 5245 5241 5238 5235 5233 5230 5227 5225 5224 5222 5220 5219 5215 5213 5213 5214 5214 5212 5211 5215 5217 5218 5221 5221 5223 5227 5229 5231 5235 5236 5235 5237 5243 5252 5261 5269 5277 5281 5284 5291 5298 5300 5306 5314 5319 5325 5334 5339 5344 5350 5356 5362 5369
5273 5270 5267 5264 5260 5257 5253 5248 5244 5239 5234 5229 5225 5223 5220 5218 5215 5213 5210 5208 5205 5203 5200 5197 5196 5197 5196 5194 5194 5198 5200 5200 5202 5203 5204 5208 5212 5213 5218 5221 5220 5222 5227 5233 5242 5253 5260 5263 5267 5275 5281 5283 5289 5297 5302 5308 5317 5323 5328 5334 5339 5345 5353
5266 5263 5259 5256 5252 5248 5243 5238 5233 5228 5223 5218 5214 5210 5208 5206 5203 5200 5197 5194 5191 5187 5184 5181 5180 5180 5179 5178 5178 5180 5182 5182 5183 5184 5185 5189 5194 5196 5199 5203 5205 5208 5211 5215 5224 5236 5244 5247 5251 5259 5265 5268 5272 5279 5284 5290 5298 5306 5312 5318 5323 5329 5337
5258 5255 5251 5247 5243 5238 5234 5228 5223 5217 5211 5207 5202 5199 5196 5193 5190 5187 5183 5179 5176 5172 5169 5166 5164 5164 5162 5161 5162 5163 5164 5164 5164 5165 5168 5171 5175 5178 5181 5185 5189 5192 5195 5198 5207 5218 5226 5231 5236 5243 5251 5254 5255 5260 5267 5274 5281 5288 5295 5302 5307 5313 5320
5250 5247 5243 5239 5234 5229 5224 5218 5212 5206 5200 5195 5191 5187 5184 5180 5177 5173 5169 5164 5160 5157 5153 5151 5149 5148 5146 5145 5145 5146 5147 5147 5147 5149 5151 5154 5158 5161 5164 5168 5173 5176 5179 5183 5191 5200 5209 5216 5221 5227 5235 5241 5240 5243 5252 5259 5265 5271 5278 5285 5290 5297 5303
5242 5239 5234 5230 5225 5219 5213 5208 5201 5194 5188 5183 5179 5175 5171 5168 5163 5159 5155 5151 5146 5142 5139 5137 5135 5133 5132 5130 5130 5131 5131 5132 5132 5133 5136 5139 5142 5145 5148 5152 5157 5160 5163 5168 5175 5183 5192 5199 5205 5212 5220 5226 5226 5229 5238 5244 5247 5255 5262 5267 5273 5281 5288
5234 5230 5226 5221 5215 5209 5203 5197 5190 5184 5177 5172 5168 5164 5159 5156 5151 5147 5142 5138 5134 5130 5126 5123 5121 5119 5118 5117 5117 5117 5118 5118 5118 5118 5122 5126 5127 5129 5133 5136 5140 5145 5149 5153 5159 5167 5174 5180 5188 5197 5205 5211 5213 5217 5224 5227 5230 5239 5248 5251 5257 5265 5273
5226 5222 5217 5213 5207 5201 5194 5187 5180 5174 5167 5161 5156 5151 5147 5143 5140 5135 5131 5127 5123 5119 5115 5112 5109 5108 5106 5105 5105 5105 5105 5106 5106 5106 5109 5112 5114 5115 5118 5121 5125 5129 5134 5138 5143 5150 5157 5162 5171 5182 5188 5195 5201 5204 5209 5213 5217 5226 5233 5236 5241 5252 5260
5219 5214 5209 5204 5198 5192 5186 5179 5171 5164 5159 5153 5146 5139 5133 5130 5127 5123 5118 5115 5111 5108 5105 5102 5100 5098 5097 5096 5095 5094 5094 5095 5095 5095 5096 5099 5101 5103 5104 5107 5111 5116 5120 5123 5127 5134 5140 5145 5155 5165 5171 5178 5186 5190 5194 5201 5205 5210 5217 5221 5228 5239 5246
5212 5207 5201 5196 5190 5184 5178 5171 5163 5156 5150 5144 5138 5130 5122 5118 5115 5111 5107 5103 5099 5097 5095 5093 5092 5090 5088 5088 5086 5085 5086 5085 5085 5085 5084 5086 5088 5090 5092 5094 5098 5102 5106 5109 5112 5118 5124 5130 5139 5148 5155 5163 5171 5175 5179 5185 5190 5195 5202 5208 5214 5223 5233
5205 5200 5194 5188 5182 5176 5170 5162 5154 5148 5142 5135 5129 5122 5114 5109 5105 5101 5097 5093 5090 5088 5086 5084 5083 5082 5081 5080 5078 5077 5077 5077 5076 5076 5075 5076 5077 5080 5082 5084 5086 5089 5093 5096 5099 5103 5111 5118 5124 5131 5141 5149 5153 5157 5164 5172 5178 5184 5188 5193 5201 5210 5218
5198 5193 5187 5180 5174 5169 5162 5154 5146 5140 5134 5128 5121 5114 5107 5101 5097 5093 5089 5085 5082 5080 5078 5076 5075 5075 5075 5073 5071 5070 5069 5068 5068 5068 5068 5068 5068 5070 5073 5074 5075 5078 5081 5084 5087 5090 5098 5107 5111 5116 5127 5134 5135 5140 5152 5161 5166 5169 5172 5178 5187 5195 5201
5191 5186 5180 5173 5167 5161 5155 5147 5138 5131 5126 5119 5112 5106 5099 5094 5090 5086 5083 5079 5076 5073 5070 5069 5068 5067 5068 5067 5065 5064 5062 5060 5060 5060 5060 5061 5061 5062 5063 5064 5067 5069 5071 5073 5075 5078 5086 5094 5099 5104 5111 5118 5120 5126 5138 5147 5149 5151 5156 5163 5173 5181 5188
5184 5179 5173 5166 5159 5153 5148 5140 5130 5123 5117 5110 5104 5098 5092 5087 5083 5080 5077 5074 5070 5067 5064 5062 5061 5060 5060 5060 5059 5057 5055 5054 5053 5052 5053 5054 5055 5056 5056 5057 5060 5061 5062 5064 5065 5068 5073 5080 5087 5092 5097 5103 5107 5111 5121 5128 5131 5135 5142 5151 5160 5168 5176
5177 5171 5165 5159 5152 5145 5140 5133 5125 5116 5110 5103 5096 5090 5085 5081 5078 5075 5072 5068 5065 5061 5059 5057 5054 5053 5052 5052 5052 5050 5049 5048 5046 5045 5047 5048 5049 5049 5049 5051 5054 5055 5055 5056 5057 5059 5062 5066 5073 5078 5082 5089 5093 5097 5103 5107 5113 5124 5132 5138 5146 5155 5163
5171 5165 5158 5152 5145 5138 5132 5126 5119 5110 5103 5096 5089 5083 5078 5075 5072 5070 5066 5063 5060 5056 5053 5051 5048 5045 5044 5045 5045 5044 5044 5043 5040 5039 5040 5040 5041 5041 5042 5046 5049 5048 5048 5049 5048 5049 5051 5054 5059 5064 5068 5073 5078 5083 5087 5090 5100 5115 5120 5122 5131 5143 5152
5164 5159 5152 5145 5138 5131 5123 5118 5111 5103 5095 5088 5082 5076 5071 5068 5066 5064 5061 5058 5054 5051 5047 5044 5041 5039 5037 5037 5038 5038 5038 5037 5035 5034 5034 5033 5033 5034 5038 5041 5041 5039 5039 5041 5041 5042 5043 5045 5048 5052 5056 5060 5066 5072 5075 5079 5090 5102 5105 5107 5119 5133 5141
5158 5153 5146 5138 5131 5124 5116 5109 5103 5097 5088 5081 5075 5069 5064 5061 5059 5057 5055 5052 5049 5045 5042 5038 5036 5034 5032 5031 5031 5032 5032 5032 5030 5028 5028 5028 5028 5030 5032 5032 5030 5030 5032 5034 5035 5036 5037 5037 5039 5042 5045 5050 5055 5061 5066 5071 5078 5086 5090 5097 5108 5120 5126
5152 5146 5140 5133 5125 5118 5110 5102 5095 5090 5082 5074 5068 5063 5058 5055 5053 5050 5048 5046 5043 5039 5036 5034 5031 5029 5027 5026 5026 5026 5026 5026 5025 5023 5023 5023 5024 5024 5024 5023 5023 5025 5027 5027 5028 5030 5030 5031 5033 5035 5037 5040 5045 5051 5056 5060 5064 5070 5076 5086 5097 5104 5109
5146 5141 5135 5128 5120 5113 5106 5097 5089 5083 5077 5069 5063 5058 5053 5050 5047 5044 5042 5040 5038 5035 5032 5030 5027 5025 5024 5023 5022 5022 5021 5021 5020 5019 5019 5019 5019 5018 5018 5017 5018 5019 5020 5021 5022 5023 5024 5025 5027 5028 5030 5032 5036 5040 5045 5048 5052 5056 5062 5072 5083 5088 5092
5141 5136 5131 5124 5117 5109 5102 5094 5085 5078 5071 5065 5058 5053 5049 5045 5042 5039 5036 5035 5033 5031 5028 5026 5024 5022 5021 5020 5019 5019 5018 5018 5017 5016 5016 5016 5015 5014 5014 5013 5013 5013 5013 5015 5015 5016 5018 5020 5021 5023 5025 5026 5029 5031 5034 5037 5041 5044 5050 5059 5067 5072 5078
5136 5131 5126 5120 5113 5106 5098 5090 5081 5073 5066 5060 5054 5049 5045 5041 5038 5034 5032 5030 5029 5027 5025 5023 5021 5020 5018 5017 5017 5016 5016 5015 5015 5014 5013 5013 5012 5011 5010 5010 5009 5009 5009 5010 5010 5011 5013 5014 5015 5017 5019 5021 5022 5023 5025 5028 5032 5036 5041 5047 5053 5058 5066
5131 5126 5121 5116 5109 5102 5094 5086 5078 5069 5062 5055 5050 5045 5041 5038 5034 5031 5028 5027 5026 5024 5022 5020 5019 5017 5016 5015 5015 5014 5014 5013 5012 5011 5010 5010 5009 5008 5007 5006 5006 5006 5005 5006 5006 5007 5009 5010 5011 5012 5014 5015 5016 5017 5020 5023 5027 5030 5033 5036 5041 5047 5056
5126 5122 5117 5111 5105 5098 5091 5083 5075 5067 5059 5052 5046 5042 5038 5035 5032 5028 5026 5024 5023 5021 5019 5018 5017 5015 5015 5014 5013 5012 5011 5011 5009 5008 5007 5005 5005 5004 5004 5003 5003 5003 5003 5003 5003 5004 5006 5007 5007 5008 5009 5010 5011 5014 5016 5018 5021 5024 5026 5028 5032 5038 5047
5122 5117 5112 5106 5100 5094 5087 5080 5073 5065 5057 5050 5044 5039 5035 5032 5029 5026 5024 5022 5020 5019 5017 5016 5015 5014 5013 5012 5011 5009 5008 5007 5006 5005 5004 5003 5002 5001 5001 5001 5000 5000 5000 5000 5001 5002 5003 5003 5003 5004 5006 5007 5008 5010 5012 5014 5016 5019 5021 5023 5026 5031 5038
5116 5111 5107 5102 5097 5091 5085 5078 5070 5063 5056 5049 5043 5037 5033 5030 5028 5025 5022 5019 5017 5016 5015 5014 5013 5012 5011 5009 5008 5006 5005 5004 5003 5002 5001 5001 5000 4999 4998 4998 4998 4998 4998 4998 4999 5000 5001 5001 5001 5002 5003 5004 5006 5007 5009 5010 5012 5014 5016 5018 5021 5025 5030
5113 5108 5103 5099 5093 5087 5082 5075 5068 5060 5053 5046 5040 5035 5031 5028 5026 5023 5020 5018 5015 5014 5013 5012 5011 5009 5008 5007 5005 5004 5002 5001 5001 5000 4999 4998 4998 4998 4997 4996 4996 4996 4996 4997 4997 4998 4999 4999 4999 5000 5001 5002 5003 5005 5006 5007 5008 5010 5012 5014 5017 5021 5024
5106 5101 5097 5092 5087 5081 5075 5070 5064 5057 5050 5043 5037 5032 5028 5025 5023 5021 5018 5016 5014 5012 5011 5010 5009 5007 5006 5004 5003 5001 5000 5000 4999 4998 4998 4997 4997 4996 4995 4995 4995 4995 4995 4996 4996 4996 4997 4997 4997 4998 4999 5000 5001 5002 5003 5004 5005 5007 5008 5011 5013 5016 5019
5100 5095 5090 5085 5081 5076 5071 5065 5060 5054 5048 5041 5036 5030 5026 5022 5020 5018 5016 5013 5012 5010 5009 5008 5007 5005 5003 5002 5001 5000 4999 4999 4998 4997 4997 4996 4996 4995 4995 4994 4994 4994 4994 4994 4995 4995 4995 4995 4996 4996 4997 4998 4999 5000 5001 5001 5002 5004 5005 5007 5010 5012 5015
5096 5091 5086 5080 5075 5070 5066 5061 5057 5052 5046 5040 5035 5029 5024 5020 5017 5015 5013 5011 5009 5008 5007 5006 5005 5003 5002 5001 5000 4999 4999 4998 4997 4996 4996 4996 4995 4994 4994 4993 4993 4993 4993 4993 4994 4994 4993 4993 4994 4995 4996 4996 4997 4998 4999 4999 5000 5001 5003 5005 5007 5009 5011
5091 5087 5082 5077 5071 5066 5061 5056 5052 5047 5043 5038 5033 5027 5023 5019 5015 5014 5012 5010 5008 5006 5005 5004 5003 5002 5001 5000 4999 4998 4997 4997 4996 4996 4995 4995 4994 4994 4993 4992 4992 4992 4992 4992 4993 4992 4992 4993 4993 4994 4995 4995 4996 4997 4997 4998 4998 4999 5001 5002 5004 5006 5008
5089 5084 5079 5075 5069 5063 5058 5053 5048 5044 5040 5035 5031 5026 5021 5016 5013 5011 5010 5008 5006 5004 5003 5002 5001 5000 4999 4998 4997 4997 4996 4995 4995 4995 4994 4994 4993 4993 4992 4992 4991 4991 4991 4992 4992 4992 4992 4992 4993 4993 4994 4995 4995 4996 4997 4997 4997 4998 4999 5001 5002 5004 5006
5088 5082 5077 5073 5068 5063 5057 5052 5047 5042 5038 5034 5030 5025 5020 5016 5011 5008 5007 5006 5005 5003 5001 5000 4999 4999 4998 4997 4996 4996 4995 4994 4994 4994 4994 4993 4992 4992 4991 4991 4991 4991 4991 4991 4991 4991 4991 4992 4992 4993 4993 4994 4995 4995 4996 4996 4997 4997 4998 4999 5001 5002 5004
5087 5081 5075 5070 5065 5061 5055 5049 5044 5040 5036 5031 5028 5024 5020 5016 5011 5007 5004 5002 5002 5001 4999 4998 4997 4996 4996 4995 4995 4994 4993 4993 4993 4993 4993 4992 4992 4991 4991 4990 4990 4990 4990 4990 4991 4991 4991 4991 4992 4992 4993 4993 4994 4995 4995 4996 4996 4997 4998 4999 5000 5001 5003